Showing default

COSMOS 2237, 22565

Orbit data source: Space-Track

COSMOS 2237, 22565 is a payload satellite owned by GRU (CIS) in LEO that was launched on Fri, 26 Mar 1993 UTC via a ZENIT-2 launch vehicle from the Tyuratam Missile And Space Complex (TTMTR). Payload-class satellites include a variety of spacecraft equipped with specific instruments for various scientific and technological missions. These include communications satellites like Starlink; space stations such as the ISS; scientific satellites like the Hubble; Earth observation satellites from companies like Planet Labs, Umbra, and HawkEye 360; GPS; miniature CubeSats for education and research; and military/defense satellites.

Loading next visibility...
Identifier
22565, 1993-016A
Orbit
LEO
Country
Flag of CISCIS
Related business
Manufacturer
Yuzhnoe
Mission
Defense Sigint
Bus & Motor
TSELINA-2, Unknown motor
Mass
3,250 kg wet, 3,250 kg dry
Launch date (UTC)
1993-03-26 (32 years ago)
Launch vehicle
ZENIT-2
Launch site
Tyuratam Missile And Space Complex (TTMTR)
Object type
Payload
Rocket body
Debris
Shape & HBR
Unknown shape, 9.5 m
Radar Cross Section
Large (>1 m²)

Expand to show TLE details & history
Last TLE update: 1 day ago

TLE from 1 day ago
0 COSMOS 2237
1 22565U 93016A   25258.05908814 -.00000288  00000-0 -12957-3 0  9993
2 22565  70.7790 174.9501 0008255 307.5541  52.4829 14.12417107674504
Epoch: 2025-09-15T01:25Z
TLE epoch observation values (Epoch: 2025-09-15T01:25:05.215Z)
Latitude
0.00007°
Longitude
159.40921°
Altitude
849.863 km
Speed
7.43 km/s
True Right ascension
11h 39m 48s
True Declination
0° 00' 00"
Sunlit
Object was in daylight at epoch
Visualization orbit readout
Latitude
Unknown
Longitude
Unknown
Altitude
Unknown
Speed
Unknown
Apparent Right ascension
Unknown
Apparent Declination
Unknown
Sunlit
N/A
Visualization observer readout
Local Sidereal Time
19:41:09
Azimuth
Unknown
Elevation
Unknown
Doppler factor
Unknown
Orbital elements
Apogee altitude
855.027 km
Perigee altitude
843.095 km
Semi-major axis
7,227.198 km
Eccentricity
0.00083
Inclination
70.779°
RAAN
174.9501°
Arg. of periapsis
307.5541°
True anomaly
52.55798°
Mean anomaly
52.4829°
Eccentric anomaly
52.52043°
Mean motion
3.53255 °/min
Orbital period
101.91 mins
BSTAR
-0.00012957
Loading maneuver chart data...
Computing Atmospheric mass density...
Loading historical data...
Loading historical data...
Loading historical data...
Loading historical data...
Loading historical data...
Loading historical data...
Loading historical data...

Documentation

Showing up to 5 results
|